This is the latest recevied weather packets stored in our database for station/object OE3BCB-14. If no packets are shown the sender has not sent any weather packets the latest 10 day(s).
| Time | Temp. | Humidity | Pressure | Rain* | Wind** | Luminosity | Snow |
|---|---|---|---|---|---|---|---|
| 1778173251 | 20.56° C | 34% | 1015 hPa | - | - | 9 W/m² | - |
| 1778172949 | 20.56° C | 34% | 1014.9 hPa | - | - | 10 W/m² | - |
| 1778172646 | 21.11° C | 34% | 1014.9 hPa | - | - | 9 W/m² | - |
| 1778172344 | 21.11° C | 34% | 1014.8 hPa | - | - | 8 W/m² | - |
| 1778172041 | 21.11° C | 33% | 1014.8 hPa | - | - | 9 W/m² | - |
| 1778171739 | 21.11° C | 33% | 1014.8 hPa | - | - | 11 W/m² | - |
| 1778171436 | 21.11° C | 33% | 1014.6 hPa | - | - | 13 W/m² | - |
| 1778171134 | 21.67° C | 33% | 1014.6 hPa | - | - | 15 W/m² | - |
| 1778170831 | 21.67° C | 32% | 1014.6 hPa | - | - | 19 W/m² | - |
| 1778170529 | 21.67° C | 32% | 1014.6 hPa | - | - | 22 W/m² | - |
| 1778170227 | 22.22° C | 32% | 1014.5 hPa | - | - | 27 W/m² | - |
| 1778169924 | 22.22° C | 32% | 1014.5 hPa | - | - | 36 W/m² | - |
| 1778169622 | 22.78° C | 32% | 1014.5 hPa | - | - | 40 W/m² | - |
| 1778169319 | 22.22° C | 32% | 1014.4 hPa | - | - | 35 W/m² | - |
| 1778169017 | 22.22° C | 31% | 1014.3 hPa | - | - | 38 W/m² | - |
| 1778168715 | 22.78° C | 31% | 1014.5 hPa | - | - | 51 W/m² | - |
| 1778168412 | 22.78° C | 31% | 1014.5 hPa | - | - | 51 W/m² | - |
| 1778168110 | 22.78° C | 31% | 1014.5 hPa | - | - | 59 W/m² | - |
| 1778167807 | 22.78° C | 31% | 1014.5 hPa | - | - | 35 W/m² | - |
| 1778167505 | 22.78° C | 31% | 1014.3 hPa | - | - | 33 W/m² | - |
| 1778167203 | 22.78° C | 30% | 1014.2 hPa | - | - | 33 W/m² | - |
| 1778166900 | 23.33° C | 30% | 1014.1 hPa | - | - | 28 W/m² | - |
| 1778166295 | 23.33° C | 30% | 1014.2 hPa | - | - | 33 W/m² | - |
| 1778165993 | 23.89° C | 30% | 1014.1 hPa | - | - | 46 W/m² | - |
| 1778165690 | 23.89° C | 30% | 1014.2 hPa | - | - | 62 W/m² | - |
* Rain since midnight (hover to see other rain measurements)
** Current wind speed in m/s (hover to see current wind gust speed)